Vertical_Velocity
1 -1 -1 -1 -6 -8 -4 -7 -7 -2 -4 -6 -5 -1 -22 -4 -3 14 6 -2 -1 -0 -3 1 2 1 -1 -3 2 -0 -0 -2 -0 -0 0 1 -0 1 0 2 1 0 2
-5 -2 -3 -4 -3 -2 -5 -8 -9 -6 -3 0 -1 -4 -3 -1 6 -25 10 7 -0 0 -0 -3 1 9 -5 -3 -1 -2 -2 -3 -3 -1 1 1 -1 -0 0 0 1 -1 -0
1 2 3 2 2 -1 -4 -4 -3 -3 -4 -5 -3 -1 -1 1 -0 -4 -4 8 -4 -8 -2 2 5 10 -3 -2 -6 -1 -0 -1 -4 -3 -2 2 0 1 1 0 1 -2 0
2 -2 -5 -3 -0 -2 1 2 -2 -6 -5 -0 0 -0 -0 -2 1 3 -3 7 2 -3 -2 -2 8 2 -4 3 8 1 2 -5 0 -3 -3 0 1 1 1 3 -0 -2 -1
-1 -1 -1 2 -1 -2 -0 2 -2 -0 1 -3 -1 4 2 2 -1 -6 3 -3 -2 -1 5 14 1 0 3 4 2 3 7 -1 4 1 -3 -1 0 0 1 2 2 -2 1
1 -1 -3 -1 2 2 -3 -1 1 -0 -7 -5 -5 -0 3 2 3 4 6 1 8 -0 5 0 -1 2 2 5 1 1 2 2 4 -1 1 -1 3 -1 1 0 1 2 1
4 4 4 -1 -3 -4 -3 -3 -6 -7 1 -1 -5 -1 3 3 3 5 -1 -1 5 -1 1 4 1 -5 1 4 6 0 5 -1 3 -1 3 1 2 2 0 -0 -0 5 2
-1 -3 -0 -2 -1 -3 1 -0 -6 -5 -3 -0 -8 -5 -8 14 5 2 4 1 -3 -8 4 0 1 -1 -1 0 -1 -4 3 5 4 29 -3 3 -0 2 2 -1 2 3 3
0 -0 -1 -1 -3 -6 -8 -4 -1 -2 -4 -3 4 -4 -6 -6 -8 11 2 3 2 1 0 -3 2 4 -2 2 -2 -4 11 3 2 -10 -6 1 -5 0 1 1 2 1 2
-2 -4 -1 0 -1 -7 -7 -3 -2 -2 -4 -3 -3 1 1 -3 -13 -10 4 1 1 2 1 3 4 2 -2 -3 4 2 1 8 9 7 -2 -8 -11 -6 2 1 1 4 2
4 2 2 4 4 2 1 -5 -11 -4 1 -5 -3 -3 -4 -1 3 -11 -10 5 5 7 1 1 -1 2 -4 9 -4 3 -1 -1 8 3 9 4 12 20 -2 2 -3 5 4
10 7 -1 -0 2 3 4 3 1 -3 -8 -3 1 -2 -2 -3 1 -8 -12 -3 -9 6 -1 3 1 3 4 2 4 6 4 -8 24 -9 13 11 6 -3 0 -1 3 -0 4
6 5 5 -0 -5 4 -1 -1 0 -1 -0 -6 -3 -1 -0 1 2 -4 -8 0 -17 5 -6 -1 1 -3 3 2 -1 5 2 -2 8 -4 8 7 2 -8 11 -1 -2 5 3
10 -5 2 1 1 0 5 1 -4 -1 -2 -2 -2 -3 -3 0 -1 5 -5 -3 -11 -4 -3 4 1 -2 -5 2 2 2 11 3 1 -7 6 1 13 6 2 7 -2 1 3
7 -3 3 -3 3 2 -1 -4 -6 -7 -7 -3 -3 -3 -2 3 -2 1 1 5 6 -17 -8 7 -8 1 -1 -6 -4 -3 -10 -3 -2 6 -3 6 -6 16 28 5 1 -1 4
6 6 2 7 1 -0 -1 -2 -2 -2 -4 -1 -2 -3 0 -0 -2 1 -2 1 8 -0 -24 4 2 0 -2 3 -0 -3 -1 -4 -0 -4 -2 3 22 6 4 3 4 1 1
9 8 5 2 1 -1 1 -2 -2 -1 -3 -4 -3 -4 -2 1 -1 -1 -1 -0 1 5 -12 23 -2 -2 -5 -2 8 -6 -0 -5 -2 4 -1 0 0 14 -0 -1 8 2 3
3 2 0 -2 -3 -3 -3 -5 -3 -1 -2 -2 0 -0 -8 -6 -7 -3 -2 -7 -7 7 6 -31 17 5 -3 -6 -2 2 -3 -0 -5 4 5 11 -3 7 2 4 27 3 5
1 1 -2 -2 -2 -3 -4 -2 -1 -2 -1 -1 -0 -1 -3 -1 -4 -4 -1 -4 4 2 -1 -9 -21 1 3 8 -12 -5 2 -8 -9 2 4 5 10 -0 9 19 -18 73 21
-1 -0 1 -0 -2 -1 -1 -1 -0 0 -0 -3 -2 -5 -2 0 -1 1 -0 1 4 -1 6 1 -23 -4 -5 7 3 -10 -7 1 -15 -4 0 -0 -1 -9 -2 -8 3 -10 43
0 -1 -3 -1 -2 -1 1 0 -3 -2 -1 -1 3 -1 -2 -0 1 2 -7 3 -1 -8 -3 -2 -13 -4 -4 -10 -13 6 -7 -1 -6 -3 2 1 -19 9 -0 -4 0 8 9
-2 -1 0 -1 -1 0 1 5 -0 0 1 -3 -1 3 0 -0 -1 0 -1 -0 1 -2 -2 -7 -7 -15 6 -7 1 -8 -6 -1 -17 13 5 3 5 5 4 4 2 13 11
-1 -1 -0 -1 -2 -1 2 1 3 -3 -3 -1 -1 -2 -1 1 -1 -2 -1 -0 0 1 -1 2 -5 -2 -13 9 8 -0 -6 -7 -10 -5 2 -4 -1 -3 2 -2 -12 -6 23
0 -3 -1 -1 -3 1 1 1 0 -1 -1 -1 1 1 -1 0 2 0 -1 -2 -1 0 2 -1 -4 -0 -2 5 4 6 0 -1 -8 -4 -4 -13 1 1 5 3 6 -5 -26
-0 -1 0 -2 -3 2 1 2 -0 -0 -1 -1 0 1 0 1 2 4 0 -1 -1 2 -0 -2 1 -0 -0 1 2 5 -2 6 -7 -9 16 3 -1 0 2 -1 5 -12 1
-1 -0 2 3 4 -3 0 -0 1 1 -1 1 2 0 0 1 1 2 1 2 1 -1 -0 2 -1 -1 1 2 3 -1 8 -4 9 -7 4 12 6 3 -0 -1 -3 5 -3
Height
3123 3122 3121 3119 3117 3116 3114 3113 3111 3110 3108 3106 3102 3101 3103 3104 3103 3107 3111 3113 3117 3120 3123 3125 3128 3128 3131 3134 3135 3139 3142 3142 3145 3149 3152 3154 3155 3157 3159 3162 3164 3166 3168
3118 3117 3114 3114 3114 3112 3111 3109 3107 3105 3104 3102 3099 3098 3097 3096 3096 3099 3100 3105 3107 3112 3115 3116 3119 3119 3120 3125 3127 3130 3134 3136 3137 3141 3145 3149 3150 3152 3154 3157 3159 3162 3164
3113 3111 3110 3107 3105 3105 3103 3102 3101 3099 3097 3095 3094 3093 3092 3094 3094 3092 3093 3094 3097 3102 3105 3107 3110 3111 3111 3113 3118 3122 3125 3129 3130 3133 3137 3141 3144 3147 3149 3151 3154 3157 3160
3106 3103 3102 3101 3099 3096 3095 3096 3095 3093 3092 3089 3089 3090 3090 3089 3089 3088 3089 3088 3091 3092 3094 3097 3100 3101 3102 3104 3106 3109 3115 3119 3123 3125 3128 3132 3137 3140 3142 3146 3149 3151 3154
3098 3096 3094 3093 3092 3091 3089 3088 3087 3086 3086 3084 3082 3081 3081 3081 3081 3082 3081 3082 3082 3084 3085 3089 3090 3092 3093 3095 3096 3100 3103 3108 3113 3118 3120 3123 3128 3132 3136 3139 3143 3146 3149
3089 3088 3085 3084 3084 3082 3080 3080 3079 3077 3076 3074 3073 3072 3071 3072 3072 3073 3073 3073 3073 3076 3075 3079 3080 3083 3082 3085 3088 3091 3093 3096 3102 3107 3112 3115 3119 3124 3128 3132 3135 3139 3142
3080 3080 3077 3073 3071 3070 3070 3069 3068 3067 3068 3065 3062 3061 3061 3061 3061 3062 3061 3061 3064 3065 3066 3068 3068 3069 3073 3076 3078 3080 3084 3087 3092 3096 3102 3106 3111 3116 3119 3124 3127 3130 3135
3071 3067 3067 3065 3064 3063 3062 3058 3056 3055 3056 3054 3051 3050 3048 3050 3050 3047 3048 3051 3052 3053 3056 3057 3059 3060 3062 3065 3067 3068 3073 3076 3081 3086 3092 3097 3101 3106 3111 3115 3119 3123 3126
3060 3059 3059 3057 3054 3052 3052 3052 3049 3046 3043 3043 3043 3040 3037 3034 3034 3037 3036 3038 3039 3042 3044 3045 3049 3050 3052 3055 3057 3059 3062 3065 3072 3080 3081 3085 3092 3096 3101 3105 3111 3115 3119
3051 3048 3047 3045 3043 3041 3042 3042 3041 3038 3035 3033 3032 3031 3030 3026 3022 3020 3024 3026 3028 3030 3032 3036 3038 3039 3042 3044 3047 3050 3053 3058 3063 3068 3071 3072 3080 3086 3089 3094 3101 3105 3111
3047 3044 3040 3038 3035 3033 3030 3029 3029 3029 3027 3024 3023 3020 3019 3017 3016 3013 3008 3011 3013 3017 3019 3022 3026 3027 3030 3032 3035 3039 3043 3047 3054 3057 3059 3061 3061 3069 3078 3084 3089 3095 3101
3041 3036 3031 3029 3027 3025 3023 3021 3019 3016 3015 3014 3012 3010 3008 3006 3005 3004 3001 2999 2999 3001 3003 3009 3012 3014 3018 3023 3024 3026 3030 3034 3041 3045 3049 3052 3056 3060 3066 3072 3078 3084 3090
3029 3026 3021 3018 3016 3014 3013 3010 3008 3007 3004 3001 3000 2997 2995 2994 2993 2993 2992 2988 2987 2989 2990 2992 2996 3000 3005 3009 3012 3015 3019 3022 3026 3032 3036 3039 3045 3050 3053 3061 3066 3072 3078
3018 3011 3008 3006 3005 3002 3000 2998 2997 2994 2992 2989 2986 2984 2982 2981 2981 2980 2979 2978 2975 2974 2976 2979 2982 2984 2988 2994 2997 3002 3005 3010 3015 3019 3023 3028 3031 3034 3042 3048 3054 3060 3066
3004 2998 2997 2994 2993 2992 2989 2986 2983 2981 2978 2975 2972 2971 2969 2968 2968 2968 2967 2967 2966 2959 2959 2966 2968 2972 2974 2976 2980 2986 2990 2996 3002 3006 3009 3013 3019 3022 3029 3034 3041 3047 3052
2992 2989 2987 2985 2982 2980 2978 2976 2972 2969 2965 2963 2961 2958 2956 2955 2954 2953 2954 2954 2954 2952 2944 2951 2953 2955 2959 2964 2965 2969 2973 2978 2984 2990 2995 2998 3003 3009 3015 3020 3027 3034 3039
2984 2981 2978 2975 2973 2970 2968 2963 2959 2955 2952 2949 2948 2946 2944 2944 2941 2941 2941 2940 2940 2941 2935 2933 2938 2942 2945 2947 2954 2955 2957 2961 2967 2973 2979 2984 2987 2991 2998 3003 3009 3019 3026
2975 2971 2968 2965 2962 2959 2954 2949 2945 2942 2938 2936 2934 2932 2930 2930 2928 2928 2928 2928 2928 2929 2928 2922 2926 2928 2931 2935 2938 2942 2944 2946 2950 2955 2961 2963 2970 2976 2982 2987 2993 3001 3011
2964 2961 2958 2955 2951 2946 2941 2936 2932 2928 2925 2922 2920 2918 2916 2915 2914 2914 2915 2913 2914 2914 2914 2912 2911 2916 2918 2921 2924 2928 2932 2935 2936 2941 2945 2946 2951 2959 2963 2971 2971 2984 2994
2955 2952 2949 2944 2940 2934 2929 2924 2920 2915 2911 2908 2906 2903 2901 2899 2898 2897 2897 2897 2897 2898 2899 2899 2900 2902 2905 2909 2911 2913 2917 2922 2925 2927 2930 2933 2936 2942 2947 2951 2959 2966 2976
2947 2943 2938 2933 2927 2922 2918 2912 2907 2902 2898 2894 2891 2888 2886 2884 2882 2880 2879 2879 2880 2881 2882 2885 2888 2890 2892 2896 2900 2904 2906 2910 2911 2913 2917 2918 2923 2928 2932 2940 2943 2951 2956
2937 2932 2927 2921 2916 2911 2907 2901 2894 2889 2885 2880 2876 2873 2871 2868 2866 2865 2864 2864 2865 2865 2867 2870 2873 2876 2879 2884 2890 2894 2897 2899 2898 2901 2902 2905 2909 2913 2918 2923 2930 2936 2944
2929 2923 2917 2911 2906 2900 2894 2888 2882 2876 2870 2866 2862 2858 2855 2854 2853 2851 2851 2850 2850 2851 2852 2856 2857 2860 2866 2872 2880 2883 2884 2885 2886 2888 2891 2893 2897 2902 2907 2910 2916 2922 2930
2920 2914 2908 2902 2894 2888 2883 2876 2869 2862 2857 2853 2850 2847 2843 2841 2840 2839 2837 2836 2836 2838 2840 2841 2842 2848 2852 2859 2867 2871 2873 2875 2878 2881 2884 2885 2888 2891 2896 2899 2902 2912 2918
2911 2905 2898 2891 2884 2878 2872 2865 2857 2850 2845 2841 2839 2835 2832 2828 2828 2828 2824 2822 2822 2823 2826 2829 2831 2833 2837 2842 2850 2858 2860 2866 2869 2873 2875 2879 2880 2883 2885 2889 2891 2902 2909
2901 2894 2888 2882 2875 2867 2861 2854 2848 2842 2837 2831 2827 2823 2820 2817 2814 2814 2813 2812 2810 2812 2815 2817 2818 2820 2824 2829 2834 2839 2848 2853 2861 2862 2868 2871 2873 2876 2878 2882 2886 2892 2899